Regional Weather Roundup
Issued by NWS Sioux Falls, SD

Home | Current Version | Previous Version | Text Only | Print | Product List | Glossary On
Versions: 1 2 3 4 5 6 7 8 9 10 11 12 13 14 15 16 17 18 19 20 21 22 23 24 25 26 27 28 29 30 31 32 33 34 35 36 37 38 39 40 41 42 43 44 45 46 47 48 49 50
000
ASUS43 KFSD 221410
RWRFSD

WEATHER ROUNDUP FOR SE SOUTH DAKOTA/SW MINNESOTA/NW IOWA
NATIONAL WEATHER SERVICE SIOUX FALLS SD
900 AM CDT MON SEP 22 2014

NOTE: "FAIR" INDICATES FEW OR NO CLOUDS BELOW 12,000 FEET WITH NO
SIGNIFICANT WEATHER AND OR OBSTRUCTIONS TO VISIBILITY.


SDZ038>040-050-052>070-221500-
SOUTHEAST SOUTH DAKOTA

CITY           SKY/WX    TMP DP  RH WIND       PRES   REMARKS
CHAMBERLAIN    SUNNY     53  47  82 SE6       30.21F
HURON          SUNNY     49  44  83 SE5       30.23F
MADISON        FAIR      52  52 100 S3        30.27S
MITCHELL       SUNNY     50  47  89 SE3       30.25F
SIOUX FALLS    MOSUNNY   54  49  83 CALM      30.28S
WINNER         FAIR      60  44  55 S21       30.19F
YANKTON        PTSUNNY   46  45  93 CALM      30.28F VSB 3/4
$$

MNZ071-072-080-081-089-090-097-098-221500-
SOUTHWEST MINNESOTA

CITY           SKY/WX    TMP DP  RH WIND       PRES   REMARKS
FAIRMONT       SUNNY     54  46  76 W3        30.30S
JACKSON        SUNNY     54  50  87 SW6       30.30S
LUVERNE        SUNNY     46  45  93 CALM      30.29F
MARSHALL       SUNNY     55  46  71 SW10      30.26S
MONTEVIDEO     SUNNY     55  52  88 W6        30.26F
PIPESTONE      SUNNY     54  48  82 SW6       30.28S
REDWOOD FALLS  SUNNY     52  48  86 SW5       30.27F
TRACY          SUNNY     56  51  82 SW10      30.28S
WINDOM           N/A     54  48  82 SW3       30.30S
WORTHINGTON    SUNNY     55  48  76 SW6       30.31R
$$

IAZ001>003-012>014-020>022-031-032-NEZ013-014-SDZ071-221500-
NORTHWEST IOWA

CITY           SKY/WX    TMP DP  RH WIND       PRES   REMARKS
CHEROKEE       SUNNY     48  48 100 CALM      30.31S
DENISON        SUNNY     50  50 100 CALM      30.30S
ESTHERVILLE    SUNNY     53  50  89 W3        30.30S
LE MARS        SUNNY     52  48  87 CALM      30.30F
ORANGE CITY    SUNNY     54  46  76 S3        30.30S
SHELDON        SUNNY     54  52  94 S3        30.29S
SIOUX CITY     SUNNY     52  49  89 E3        30.30S
SPENCER        SUNNY     51  48  89 CALM      30.31S
$$

ABBREVIATIONS USED IN REMARKS
   TC - TEMPERATURE IN CELSIUS
  WCI - WIND CHILL INDEX
   HX - HEAT INDEX
  VSB - VISIBILITY



USA.gov is the U.S. government's official web portal to all federal, state and local government web resources and services.